Regional Weather Roundup
Issued by NWS

Home | Current Version | Previous Version | Graphics & Text | Print | Product List | Glossary On
Versions: 1 2 3 4 5 6 7 8 9 10 11 12 13 14 15 16 17 18 19 20 21 22 23 24 25 26 27 28 29 30 31 32 33 34 35 36 37 38 39 40 41 42 43 44 45 46 47 48 49 50
000
ASUS43 KLOT 130408
RWRIL

ILLINOIS REGIONAL WEATHER ROUNDUP
NATIONAL WEATHER SERVICE CHICAGO/ROMEOVILLE IL
1000 PM CST TUE DEC 12 2017

NOTE: "FAIR" INDICATES FEW OR NO CLOUDS BELOW 12,000 FEET WITH NO
SIGNIFICANT WEATHER AND/OR OBSTRUCTIONS TO VISIBILITY.

* THESE STATIONS ARE NOT UNDER NWS QUALITY CONTROL. THEY ALSO MAY NOT
  REPORT WEATHER SUCH AS PRECIPITATION OR FOG.

ILZ001-002-007-009-015-016-024-130500-
NORTHWEST ILLINOIS

CITY           SKY/WX    TMP DP  RH WIND       PRES   REMARKS
MOLINE         CLOUDY    23   6  48 CALM      29.96F
STERLING*      CLOUDY    23  14  68 CALM      29.97F
SAVANNA*       CLOUDY    25  13  60 S5        29.95F WCI  19
$$

ILZ003-004-008-010-011-017-018-130500-
NORTH CENTRAL ILLINOIS

CITY           SKY/WX    TMP DP  RH WIND       PRES   REMARKS
ROCKFORD       FLURRIES  21  10  62 SW3       29.96F
FREEPORT*      CLOUDY    21  13  70 SW7       29.95F WCI  13
ROCHELLE*      CLOUDY    21  15  77 SW5       29.96F WCI  14
DE KALB*       CLOUDY    21  12  68 W7        29.95F WCI  12
PERU*          CLOUDY    24  11  57 SW5       29.98F WCI  18
$$

ILZ005-006-012>014-019>023-130500-
NORTHEAST ILLINOIS

CITY           SKY/WX    TMP DP  RH WIND       PRES   REMARKS
CHICAGO-OHARE  CLOUDY    21   9  59 W5        29.98S WCI  15
CHICAGO-MIDWAY CLOUDY    21   9  59 W6        29.99S WCI  13
AURORA         CLOUDY    20  12  71 SW5       29.97F WCI  13
LANSING*       CLOUDY    20  11  69 W6        30.00S WCI  12
JOLIET*        CLOUDY    22  10  60 CALM      30.00F
WAUKEGAN       CLOUDY    17   4  56 CALM      29.95F
DUPAGE AIRPORT CLOUDY    20   9  62 W3        29.96F
KANKAKEE*      CLOUDY    21   9  60 W6        30.02S WCI  13
WHEELING       CLOUDY    20   9  62 W5        29.98F WCI  13
MORRIS*        CLOUDY    21  11  65 S3        29.98F
ROMEOVILLE*    CLOUDY    20  11  66 W5        29.99R WCI  14
NORTHERLY ISL    N/A     21   8  57 W5          N/A  WCI  15
$$

LMZ740>746-130500-
SOUTHERN LAKE MICHIGAN

STATION/POSITION SKY/WX   TEMP    WIND        PRES    VSBY  WAVE
                          AIR SEA DIR/SP/G                  HT/PER
                          (F)     (DEG/KT/KT) (MB)    (MI)  (FT/S)
HARRISON CRIB              22     290/ 14/ 17   N/A
BURNHAM HARBOR             21     260/  6/  9   N/A
CALUMET HARBOR             20     250/  5/  8 1014.9S
BURNS HARBOR               23     280/ 11/ 17 1015.2F
MICHIGAN CITY              23     290/ 14/ 16   N/A
$$

ILZ025>027-034>036-040-047-049-050-058-095>099-130500-
WEST-CENTRAL ILLINOIS

CITY           SKY/WX    TMP DP  RH WIND       PRES   REMARKS
QUINCY         CLOUDY    23   6  48 SW7       30.01F WCI  15
GALESBURG*     CLOUDY    21  11  65 SW5       29.99F WCI  14
MACOMB*        CLOUDY    22   7  53 SW7       30.01F WCI  13
JACKSONVILLE*  CLOUDY    24   3  40 SW7       30.03F WCI  16
PITTSFIELD*    CLOUDY    22   8  56 S5        30.03F WCI  15
$$

ILZ028>032-037-038-041>044-048-051>054-059>061-130500-
CENTRAL ILLINOIS

CITY           SKY/WX    TMP DP  RH WIND       PRES   REMARKS
PONTIAC        CLOUDY    25   7  46 SW5       30.00F WCI  20
BLOOMINGTON    CLOUDY    25   7  46 W9        30.00  WCI  15
DECATUR        CLOUDY    22   8  55 SW7       30.03F WCI  13
PEORIA         CLOUDY    23   8  52 SW6       30.00F WCI  16
LACON*         CLOUDY    25   8  49 CALM      30.00F
LINCOLN*       CLOUDY    26   9  50 CALM      30.02F
SPRINGFIELD    CLOUDY    22   6  50 S3        30.04F
TAYLORVILLE    CLOUDY    22   5  48 S5        30.05F WCI  16
$$

ILZ033-039-045-046-055>057-062-063-130500-
EAST-CENTRAL ILLINOIS

CITY           SKY/WX    TMP DP  RH WIND       PRES   REMARKS
CHAMPAIGN      MOCLDY    20   8  60 W3        30.02F
DANVILLE*      CLOUDY    19   9  64 CALM      30.00F
RANTOUL*       CLOUDY    26  10  52 W3        30.01F
MATTOON        PTCLDY    22   8  55 SW3       30.03F
PARIS*         MOCLDY    19  10  67 W5        30.04F WCI  13
$$

ILZ079-100>102-130500-
SOUTHWEST ILLINOIS

CITY           SKY/WX    TMP DP  RH WIND       PRES   REMARKS
ALTON          PTCLDY    25   9  50 SW6       30.09S WCI  18
BELLEVILLE     CLOUDY    24   8  51 SW3       30.08F
CAHOKIA*       CLEAR     27   7  42 SW3       30.08F
SPARTA*        CLEAR     28   7  41 SW3       30.11S
$$

ILZ064>066-069>071-074>076-080>082-084>086-088>090-092>094-130500-
SOUTH-CENTRAL ILLINOIS

CITY           SKY/WX    TMP DP  RH WIND       PRES   REMARKS
CARBONDALE     CLEAR     26   9  48 SW5       30.11F WCI  20
CAIRO*         CLEAR     25  16  69 CALM      30.13S
EFFINGHAM*     CLEAR     21  12  69 CALM      30.07F
MARION         CLEAR     27   8  43 S3        30.12S
MT. VERNON     CLEAR     21  15  78 CALM      30.09F
CENTRALIA*     CLEAR     25  13  59 CALM      30.08F
SALEM*         CLEAR     26  12  56 SW5       30.08F WCI  20
METROPOLIS*    CLEAR     25  14  63 CALM      30.14S
$$

ILZ067-068-072-073-078-083-087-091-130500-
SOUTHEAST ILLINOIS

CITY           SKY/WX    TMP DP  RH WIND       PRES   REMARKS
LAWRENCEVILLE  CLEAR     24   9  52 W5        30.08F WCI  18
FLORA*         CLEAR     24  15  70 SW5       30.09F WCI  18
FAIRFIELD*     CLEAR     22  15  74 CALM      30.09S
HARRISBURG*    CLEAR     22  16  76 CALM      30.12S
ROBINSON*      CLEAR     20  10  62 W3        30.08F
CARMI*         CLEAR     24  12  60 CALM      30.10S
$$

ABBREVIATIONS USED IN REMARKS
   TC - TEMPERATURE IN CELSIUS
  WCI - WIND CHILL INDEX
   HX - HEAT INDEX
  VSB - VISIBILITY
$$





USA.gov is the U.S. government's official web portal to all federal, state and local government web resources and services.